Location: Solon
(41.3849°N, 81.4081°W)
Time: 15:47:36
(UTC-04:00)

CZ-2C R/B - Visible Passes

Search period start: 23 August 2014 00:00
Search period end: 02 September 2014 00:00
Orbit: 705 x 910 km, 98.1° (Epoch: 23 August)

Date Brightness Start Highest point End Pass type
(mag) Time Alt. Az. Time Alt. Az. Time Alt. Az.
23 Aug 4.0 03:57:54 20° SE 04:00:41 41° ENE 04:05:12 10° N visible
23 Aug 4.1 05:39:00 17° WSW 05:40:47 20° W 05:44:20 10° NW visible
24 Aug 4.9 03:33:15 13° ESE 03:36:22 25° ENE 03:40:15 10° NNE visible
24 Aug 3.4 05:14:21 26° SW 05:16:06 35° W 05:20:31 10° NNW visible
25 Aug 5.6 03:09:29 10° E 03:12:09 15° ENE 03:14:52 10° NNE visible
25 Aug 2.8 04:49:42 36° SSW 04:51:30 62° W 04:56:19 10° NNW visible
26 Aug 2.9 04:25:03 36° SSE 04:26:59 76° ENE 04:31:52 10° N visible
26 Aug 4.7 06:06:31 10° W 06:07:32 11° W 06:08:32 10° WNW visible
27 Aug 3.9 04:00:23 27° SE 04:02:34 44° ENE 04:07:13 10° N visible
27 Aug 4.2 05:41:29 18° WSW 05:42:44 19° W 05:46:11 10° NW visible
28 Aug 4.8 03:35:44 17° ESE 03:38:15 26° ENE 03:42:19 10° N visible
28 Aug 3.5 05:16:50 29° SW 05:18:01 33° W 05:22:26 10° NNW visible
29 Aug 5.5 03:11:06 10° E 03:14:02 16° ENE 03:17:02 10° NNE visible
29 Aug 2.9 04:52:10 44° SSW 04:53:24 58° W 04:58:17 10° NNW visible
30 Aug 2.9 04:27:30 48° SSE 04:28:53 81° ENE 04:33:52 10° N visible
31 Aug 3.8 04:02:51 34° ESE 04:04:27 47° ENE 04:09:14 10° N visible
31 Aug 4.2 05:43:57 18° WSW 05:44:40 18° W 05:48:04 10° NW visible
01 Sep 4.7 03:38:11 22° ESE 03:40:08 28° ENE 03:44:23 10° N visible
01 Sep 3.6 05:19:17 30° WSW 05:19:57 31° W 05:24:23 10° NNW visible
